TimeCST,TemperatureF,Dew PointF,Humidity,Sea Level PressureIn,VisibilityMPH,Wind Direction,Wind SpeedMPH,Gust SpeedMPH,PrecipitationIn,Events,Conditions,WindDirDegrees,DateUTC
12:15 AM,6.8,-4.5,60,30.15,10.0,North,20.7,24.2,N/A,,Overcast,10,2014-01-21 06:15:00
12:35 AM,6.3,-4.7,61,30.15,10.0,North,23.0,28.8,N/A,,Mostly Cloudy,10,2014-01-21 06:35:00
12:55 AM,5.9,-4.9,61,30.16,10.0,North,17.3,24.2,N/A,,Mostly Cloudy,10,2014-01-21 06:55:00
1:15 AM,5.7,-4.5,63,30.17,10.0,North,20.7,24.2,N/A,,Mostly Cloudy,360,2014-01-21 07:15:00
1:40 AM,4.8,-4.9,64,30.19,10.0,North,16.1,24.2,N/A,,Scattered Clouds,360,2014-01-21 07:40:00
1:55 AM,3.4,-6.7,63,30.19,10.0,North,16.1,27.6,N/A,,Scattered Clouds,360,2014-01-21 07:55:00
2:15 AM,3.0,-6.7,64,30.21,10.0,North,13.8,25.3,N/A,,Clear,360,2014-01-21 08:15:00
2:35 AM,2.3,-7.6,63,30.22,10.0,North,13.8,21.9,N/A,,Clear,360,2014-01-21 08:35:00
2:55 AM,1.8,-8.0,64,30.23,10.0,North,13.8,18.4,N/A,,Clear,360,2014-01-21 08:55:00
3:15 AM,1.4,-7.8,65,30.24,10.0,North,11.5,16.1,N/A,,Clear,350,2014-01-21 09:15:00
3:35 AM,1.2,-7.4,67,30.24,10.0,North,13.8,19.6,N/A,,Clear,350,2014-01-21 09:35:00
3:55 AM,0.5,-8.3,66,30.24,10.0,NNW,11.5,20.7,N/A,,Clear,340,2014-01-21 09:55:00
4:15 AM,-0.2,-8.5,68,30.25,10.0,North,11.5,20.7,N/A,,Clear,350,2014-01-21 10:15:00
4:40 AM,-0.8,-8.5,70,30.26,10.0,North,13.8,18.4,N/A,,Clear,350,2014-01-21 10:40:00
4:55 AM,-1.3,-8.9,70,30.27,10.0,North,11.5,20.7,N/A,,Clear,350,2014-01-21 10:55:00
5:15 AM,-1.5,-9.2,70,30.27,10.0,NNW,12.7,18.4,N/A,,Clear,340,2014-01-21 11:15:00
5:35 AM,-2.2,-9.6,71,30.27,10.0,North,11.5,18.4,N/A,,Clear,350,2014-01-21 11:35:00
5:55 AM,-2.4,-9.6,71,30.27,10.0,North,11.5,16.1,N/A,,Clear,350,2014-01-21 11:55:00
6:15 AM,-3.1,-9.8,73,30.29,10.0,NNW,6.9,-,N/A,,Clear,330,2014-01-21 12:15:00
6:35 AM,-3.6,-10.1,74,30.28,10.0,NNW,6.9,-,N/A,,Clear,340,2014-01-21 12:35:00
6:55 AM,-4.0,-10.3,74,30.28,10.0,NNW,8.1,-,N/A,,Clear,330,2014-01-21 12:55:00
7:15 AM,-4.2,-10.3,75,30.29,10.0,NNW,5.8,-,N/A,,Clear,330,2014-01-21 13:15:00
7:35 AM,-4.5,-10.3,76,30.29,10.0,North,9.2,-,N/A,,Clear,350,2014-01-21 13:35:00
7:55 AM,-4.0,-10.3,74,30.29,10.0,NNW,8.1,-,N/A,,Clear,340,2014-01-21 13:55:00
8:15 AM,-3.6,-10.5,72,30.29,10.0,NNW,8.1,-,N/A,,Clear,330,2014-01-21 14:15:00
8:35 AM,-3.1,-10.5,71,30.29,10.0,NNW,9.2,-,N/A,,Clear,340,2014-01-21 14:35:00
8:55 AM,-2.6,-10.7,68,30.29,10.0,North,8.1,-,N/A,,Clear,360,2014-01-21 14:55:00
9:15 AM,-2.0,-10.5,67,30.29,10.0,North,12.7,17.3,N/A,,Clear,350,2014-01-21 15:15:00
9:35 AM,-1.3,-10.3,66,30.29,10.0,NNW,10.4,-,N/A,,Clear,340,2014-01-21 15:35:00
9:55 AM,-0.2,-9.4,65,30.29,10.0,North,8.1,-,N/A,,Clear,350,2014-01-21 15:55:00
10:15 AM,0.1,-9.4,64,30.30,10.0,North,10.4,-,N/A,,Clear,360,2014-01-21 16:15:00
10:35 AM,0.5,-9.4,63,30.30,10.0,NW,8.1,-,N/A,,Clear,320,2014-01-21 16:35:00
10:55 AM,1.4,-9.2,61,30.29,10.0,NNW,9.2,-,N/A,,Clear,330,2014-01-21 16:55:00
11:15 AM,2.1,-8.7,61,30.29,10.0,NW,4.6,-,N/A,,Clear,320,2014-01-21 17:15:00
11:35 AM,2.3,-8.7,60,30.28,10.0,NNW,6.9,-,N/A,,Clear,340,2014-01-21 17:35:00
11:55 AM,3.0,-8.7,58,30.27,10.0,NW,4.6,-,N/A,,Clear,320,2014-01-21 17:55:00
12:15 PM,3.6,-8.5,57,30.27,10.0,NNW,3.5,-,N/A,,Clear,330,2014-01-21 18:15:00
12:35 PM,4.5,-8.0,57,30.26,10.0,NW,3.5,-,N/A,,Clear,320,2014-01-21 18:35:00
12:55 PM,5.2,-8.0,55,30.25,10.0,WNW,6.9,-,N/A,,Clear,300,2014-01-21 18:55:00
1:15 PM,5.5,-7.4,55,30.24,10.0,West,8.1,-,N/A,,Clear,270,2014-01-21 19:15:00
1:35 PM,5.4,-7.6,55,30.23,10.0,West,8.1,-,N/A,,Clear,280,2014-01-21 19:35:00
1:55 PM,5.4,-7.6,55,30.22,10.0,West,10.4,-,N/A,,Clear,270,2014-01-21 19:55:00
2:15 PM,5.5,-6.7,57,30.22,10.0,West,5.8,-,N/A,,Clear,280,2014-01-21 20:15:00
2:35 PM,5.0,-7.8,56,30.22,10.0,West,8.1,-,N/A,,Clear,280,2014-01-21 20:35:00
3:00 PM,3.7,-8.5,57,30.21,10.0,West,5.8,-,N/A,,Clear,280,2014-01-21 21:00:00
3:15 PM,3.2,-8.5,58,30.21,10.0,West,4.6,-,N/A,,Clear,270,2014-01-21 21:15:00
3:35 PM,2.8,-8.5,59,30.21,10.0,West,3.5,-,N/A,,Clear,260,2014-01-21 21:35:00
3:55 PM,3.2,-8.5,58,30.21,10.0,West,3.5,-,N/A,,Clear,260,2014-01-21 21:55:00
4:15 PM,2.8,-8.5,59,30.21,10.0,WSW,5.8,-,N/A,,Clear,250,2014-01-21 22:15:00
4:35 PM,2.7,-9.0,58,30.20,10.0,WSW,4.6,-,N/A,,Clear,250,2014-01-21 22:35:00
4:55 PM,2.3,-8.5,61,30.19,10.0,WSW,5.8,-,N/A,,Clear,250,2014-01-21 22:55:00
5:15 PM,1.6,-8.7,62,30.19,10.0,West,8.1,-,N/A,,Clear,260,2014-01-21 23:15:00
5:35 PM,1.4,-8.9,62,30.19,10.0,SW,5.8,-,N/A,,Clear,230,2014-01-21 23:35:00
5:55 PM,1.4,-9.0,62,30.19,10.0,WSW,8.1,-,N/A,,Clear,240,2014-01-21 23:55:00
6:15 PM,0.9,-8.7,64,30.18,10.0,WSW,6.9,-,N/A,,Clear,240,2014-01-22 00:15:00
6:35 PM,0.1,-9.0,65,30.17,10.0,WSW,5.8,-,N/A,,Clear,250,2014-01-22 00:35:00
6:55 PM,-0.4,-9.4,66,30.16,10.0,WSW,5.8,-,N/A,,Clear,250,2014-01-22 00:55:00
7:15 PM,-0.6,-9.4,66,30.15,10.0,WSW,5.8,-,N/A,,Clear,240,2014-01-22 01:15:00
7:40 PM,-0.6,-9.4,66,30.15,10.0,WSW,4.6,-,N/A,,Clear,250,2014-01-22 01:40:00
7:55 PM,-0.4,-9.2,66,30.15,10.0,SW,4.6,-,N/A,,Clear,230,2014-01-22 01:55:00
8:15 PM,-1.1,-9.4,68,30.15,10.0,West,5.8,-,N/A,,Clear,270,2014-01-22 02:15:00
8:35 PM,-1.3,-10.7,65,30.15,10.0,West,5.8,-,N/A,,Clear,260,2014-01-22 02:35:00
8:55 PM,-1.8,-10.5,67,30.14,10.0,WSW,5.8,-,N/A,,Clear,250,2014-01-22 02:55:00
9:15 PM,-1.3,-9.4,69,30.14,10.0,WSW,4.6,-,N/A,,Clear,250,2014-01-22 03:15:00
9:35 PM,-0.8,-9.4,67,30.14,10.0,West,8.1,-,N/A,,Mostly Cloudy,270,2014-01-22 03:35:00
9:55 PM,-0.2,-8.7,67,30.15,10.0,WSW,6.9,-,N/A,,Overcast,250,2014-01-22 03:55:00
10:15 PM,0.1,-8.5,67,30.14,10.0,WSW,5.8,-,N/A,,Overcast,250,2014-01-22 04:15:00
10:35 PM,0.7,-7.8,68,30.13,10.0,WSW,4.6,-,N/A,,Overcast,240,2014-01-22 04:35:00
10:55 PM,1.4,-6.9,68,30.13,10.0,SW,5.8,-,N/A,,Overcast,220,2014-01-22 04:55:00
11:15 PM,1.6,-6.9,68,30.12,10.0,SW,5.8,-,N/A,,Overcast,220,2014-01-22 05:15:00
11:35 PM,1.4,-7.4,67,30.12,10.0,SSW,6.9,-,N/A,,Overcast,200,2014-01-22 05:35:00
11:55 PM,1.0,-7.6,67,30.10,10.0,SSW,6.9,-,N/A,,Overcast,200,2014-01-22 05:55:00